Location: Lane
(33.5226°N, 79.8788°W)
Time: 17:06:12
(UTC+00:00)

Transit 2A - Pass Details

Date: 28 September 2022
Orbit: 598 x 959 km, 66.7° (Epoch: 06 December)

Event Time Altitude Azimuth Distance (km) Brightness Sun altitude
Rises 04:58:12 0° 206° (SSW) 3,011 - -58.4°
Reaches altitude 10° 05:00:35 10° 207° (SSW) 2,054 - -58.4°
Maximum altitude 05:05:11 83° 297° (WNW) 629 - -58.5°
Drops below altitude 10° 05:09:32 10° 24° (NNE) 1,950 - -58.5°
Sets 05:11:44 0° 26° (NNE) 2,845 - -58.5°
